[Iaude] MPEC U18: 2013 RF98 [a=349.96,e=0.90,i=29.6,H=8.7]

mpec at si.edu mpec at si.edu
Wed Oct 19 10:06:19 EDT 2016


M.P.E.C. 2016-U18                                Issued 2016 Oct. 19, 14:01 UT
 
     The Minor Planet Electronic Circulars contain information on unusual
         minor planets and routine data on comets.  They are published
    on behalf of Division F of the International Astronomical Union by the
          Minor Planet Center, Smithsonian Astrophysical Observatory,
                          Cambridge, MA 02138, U.S.A.

             Prepared using the Tamkin Foundation Computer Network

                              MPC at CFA.HARVARD.EDU
            URL http://www.minorplanetcenter.net/    ISSN 1523-6714


                                   2013 RF98
 
Additional Observations:
     K13R98F ^C2016 09 06.12260602 49 07.83 -00 11 14.2          24.4 rLEU018950
     K13R98F ^C2016 09 06.12945802 49 07.81 -00 11 14.5          24.4 rLEU018950
     K13R98F ^C2016 09 06.14211302 49 07.79 -00 11 14.7          24.5 rLEU018950
     K13R98F ^C2016 09 06.14819102 49 07.78 -00 11 14.7          24.5 rLEU018950
     K13R98F ^C2016 09 06.15182302 49 07.77 -00 11 14.8          24.5 rLEU018950
     K13R98F ^C2016 09 08.11654702 49 03.61 -00 11 59.1          24.6 rLEU018950
     K13R98F ^C2016 09 08.12011402 49 03.60 -00 11 59.1          24.6 rLEU018950
     K13R98F ^C2016 09 08.12348302 49 03.60 -00 11 59.3          24.5 rLEU018950
     K13R98F ^C2016 09 08.12632602 49 03.59 -00 11 59.4          24.5 rLEU018950
 
Observer details:
950 La Palma.  Observer J. de Leon Cruz.  Measurers J. de Leon Cruz, C. de la
    Fuente Marcos, R. de la Fuente Marcos.  10.40-m f/17.0 reflector + CCD.
 
Orbital elements:
2013 RF98
Epoch 2016 July 31.0 TT = JDT 2457600.5                 MPC
M   0.37087              (2000.0)            P               Q
n   0.00015055     Peri.  311.82840     +0.85332451     -0.25247649
a 349.9576977      Node    67.60733     +0.48543390     +0.70397303
e   0.8968542      Incl.   29.56266     -0.19023989     +0.66383552
P  6550            H    8.7           G   0.15           U   2
Residuals in seconds of arc
130912 W84  0.2-  0.4-    131010 W84  0.3+  0.2+    131106 W84  0.1+  0.0
130912 W84  0.0   0.2-    131010 W84  0.1-  0.1+    131106 W84  0.1-  0.1-
130912 W84  0.0   0.1-    131011 W84  0.1-  0.2+    131106 W84  0.1-  0.1-
130929 W84  0.2+  0.1-    131011 W84  0.1+  0.0     131107 W84  0.0   0.1-
130929 W84  0.2+  0.1-    131011 W84  0.1-  0.0     131107 W84  0.1-  0.1-
130929 W84  0.3+  0.0     131011 W84  0.0   0.1+    131107 W84  0.3+  0.0
130929 W84  0.1-  0.1-    131011 W84  0.1-  0.0     160906 950  0.0   0.0
131003 W84  0.2-  0.0     131011 W84  0.1-  0.0     160906 950  0.1-  0.1-
131003 W84  0.1-  0.0     131011 W84  0.0   0.1+    160906 950  0.0   0.0
131003 W84  0.0   0.1+    131011 W84  0.1-  0.0     160906 950  0.0   0.1+
131003 W84  0.1-  0.0     131015 W84  0.1-  0.0     160906 950  0.0   0.1+
131003 W84  0.1+  0.1+    131015 W84  0.1-  0.1-    160908 950  0.0   0.0
131003 W84  0.1+  0.3+    131015 W84  0.0   0.2+    160908 950  0.0   0.1+
131003 W84  0.0   0.1+    131015 W84  0.1+  0.1-    160908 950  0.1+  0.0
131003 W84  0.1+  0.0     131106 W84  0.2-  0.1+    160908 950  0.1+  0.1-
131010 W84  0.1+  0.1+    131106 W84  0.0   0.1-

Ephemeris:
2013 RF98                a,e,i = 349.96, 0.90, 30                q = 36.097
Date    TT    R. A. (2000) Decl.     Delta      r     Elong.  Phase     V
2016 09 19    02 48 34.3 -00 16 14  36.0222 36.7322   134.4     1.1    24.5
...
2016 10 04    02 47 38.4 -00 22 12  35.8889 36.7397   147.9     0.8    24.4
...
2016 10 12    02 47 02.6 -00 25 14  35.8406 36.7438   154.5     0.7    24.4
...
2016 10 18    02 46 33.8 -00 27 21  35.8157 36.7468   158.9     0.6    24.4
2016 10 19    02 46 28.8 -00 27 41  35.8126 36.7473   159.5     0.5    24.4
2016 10 20    02 46 23.8 -00 28 01  35.8097 36.7478   160.2     0.5    24.4
...
2016 10 26    02 45 53.3 -00 29 53  35.7984 36.7508   163.1     0.4    24.4
...
2016 11 03    02 45 11.4 -00 32 02  35.7997 36.7549   164.1     0.4    24.4
...
2016 11 18    02 43 52.8 -00 34 37  35.8527 36.7626   156.7     0.6    24.4

A. U. Tomatic                (C) Copyright 2016 MPC           M.P.E.C. 2016-U18




More information about the Iaude mailing list